Volver al catálogo

SL-8 DEB

ActivoLEO
NORAD 17842·DEBRIS·🇷🇺 Russia

Lanzado Apr 17, 1986 desde Plesetsk Cosmodrome

Loading…

Próximos Pases (próximas 24 horas)

TLE

ActualizadoSource: Space-Track

Época: Sep 14, 2026, 14:18 UTC

1 17842U 86030C   26257.59630292  .00000891  00000-0  23605-3 0  9994
2 17842  74.0197  61.9165 0015504 174.0283 304.0020 14.50188264 79228

Sigue SL-8 DEB en tiempo real con AllMySat

Download on the App Store